Fort Yukon, AK

10:21 PM AKST on February 21, 2017 (GMT -0900)
Fort Yukon

Weather History for PFYU - December, 2013

Change the Weather History Date:

Monday, December 23, 2013

  Actual Average Record
Temperature  
Mean Temperature -2 °F -  
Max Temperature 3 °F -3 °F 21 °F (1999)
Min Temperature -9 °F -17 °F -52 °F (2012)
Degree Days  
Heating Degree Days 67    
Moisture  
Dew Point -10 °F    
Average Humidity 69    
Maximum Humidity 78    
Minimum Humidity 46    
Precipitation  
Precipitation 0.00 in - - ()
Sea Level Pressure  
Sea Level Pressure 29.88 in    
Wind  
Wind Speed 3 mph (WSW)    
Max Wind Speed 12 mph    
Max Gust Speed 17 mph    
Visibility 8 miles    
Events      
Averages and records for this station are not official NWS values.
T = Trace of Precipitation, MM = Missing Value Source: NWS Daily Summary

Daily Weather History Graph

Daily Weather History Graph

Search for Another Location

Airport or City:

Trip Planner

Search our weather history database for the weather conditions in past years. The results will help you decide how hot, cold, wet, or windy it might be!

Date:

Astronomy

Dec. 23, 2013 Rise Set
Actual Time 11:34 AM AKST 1:45 PM AKST
Civil Twilight 9:42 AM AKST 3:38 PM AKST
Nautical Twilight 8:22 AM AKST 4:58 PM AKST
Astronomical Twilight 7:15 AM AKST 6:05 PM AKST
Moon 11:33 PM AKST (12/23) 11:47 AM AKST (12/23)
Length of Visible Light 5h 56m
Length of Day
2h 10m
Waning Gibbous, 66% of the Moon is Illuminated
Dec 23
Waning Gibbous
Dec 25
Last Quarter
Jan 1
New
Jan 7
First Quarter
Jan 15
Full

Hourly Weather History & Observations

Time (AKST) Temp. Windchill Dew Point Humidity Pressure Visibility Wind Dir Wind Speed Gust Speed Precip Events Conditions
12:36 AM -5.8 °F - -11.2 °F 77% 29.72 in 2.0 mi Calm Calm - N/A   Overcast
12:56 AM -5.8 °F - -11.2 °F 77% 29.72 in 2.5 mi Calm Calm - N/A   Overcast
1:16 AM -5.8 °F - -11.2 °F 77% 29.72 in 4.0 mi Calm Calm - N/A   Overcast
1:56 AM -4.0 °F - -11.2 °F 71% 29.72 in 1.5 mi Calm Calm - N/A   Overcast
2:16 AM -4.0 °F - -11.2 °F 71% 29.73 in 1.5 mi Calm Calm - N/A   Overcast
2:36 AM -4.0 °F - -11.2 °F 71% 29.73 in 3.0 mi Calm Calm - N/A   Mostly Cloudy
3:16 AM -2.2 °F - -9.4 °F 71% 29.74 in 2.0 mi Calm Calm - N/A   Overcast
3:36 AM -2.2 °F - -7.6 °F 78% 29.74 in 1.8 mi Calm Calm - N/A   Overcast
3:56 AM -0.4 °F - -5.8 °F 78% 29.74 in 2.0 mi Calm Calm - N/A   Overcast
4:16 AM 3.2 °F -9.1 °F -2.2 °F 78% 29.75 in 4.0 mi West 6.9 mph - N/A   Mostly Cloudy
4:36 AM 3.2 °F -10.3 °F -4.0 °F 72% 29.75 in 5.0 mi West 8.1 mph - N/A   Mostly Cloudy
6:36 AM 3.2 °F -10.3 °F -5.8 °F 66% 29.77 in 10.0 mi WSW 8.1 mph - N/A   Clear
7:56 AM 3.2 °F -10.3 °F -5.8 °F 66% 29.78 in 10.0 mi West 8.1 mph - N/A   Clear
8:56 AM 3.2 °F -13.1 °F -7.6 °F 61% 29.79 in 10.0 mi West 11.5 mph 17.3 mph N/A   Scattered Clouds
9:36 AM 1.4 °F -12.5 °F -7.6 °F 66% 29.80 in 10.0 mi WSW 8.1 mph - N/A   Partly Cloudy
10:36 AM 1.4 °F -9.9 °F -7.6 °F 66% 29.82 in 10.0 mi WSW 5.8 mph - N/A   Mostly Cloudy
12:16 PM -0.4 °F -8.3 °F -9.4 °F 66% 29.85 in 10.0 mi SW 3.5 mph - N/A   Scattered Clouds
12:56 PM -0.4 °F -10.4 °F -7.6 °F 72% 29.87 in 10.0 mi WSW 4.6 mph - N/A   Scattered Clouds
1:55 PM 1.4 °F -13.5 °F -7.6 °F 66% 29.89 in 10.0 mi SW 9.2 mph 16.1 mph N/A   Mostly Cloudy
2:16 PM 1.4 °F -14.5 °F -7.6 °F 66% 29.90 in 10.0 mi West 10.4 mph 17.3 mph N/A   Mostly Cloudy
5:16 PM -2.2 °F -12.5 °F -11.2 °F 66% 29.97 in 10.0 mi WSW 4.6 mph - N/A   Scattered Clouds
5:36 PM -2.2 °F -12.5 °F -11.2 °F 66% 29.98 in 10.0 mi WSW 4.6 mph - N/A   Scattered Clouds
5:56 PM -4.0 °F - -11.2 °F 71% 29.99 in 10.0 mi Calm Calm - N/A   Partly Cloudy
6:36 PM -4.0 °F -14.6 °F -11.2 °F 71% 30.01 in 10.0 mi WSW 4.6 mph - N/A   Partly Cloudy
7:36 PM -5.8 °F -16.7 °F -13.0 °F 71% 30.03 in 10.0 mi WSW 4.6 mph - N/A   Clear
7:56 PM -5.8 °F -16.7 °F -13.0 °F 71% 30.03 in 10.0 mi WSW 4.6 mph - N/A   Clear
9:16 PM -5.8 °F -16.7 °F -14.8 °F 65% 30.06 in 10.0 mi WSW 4.6 mph - N/A   Clear
9:36 PM -5.8 °F -16.7 °F -14.8 °F 65% 30.07 in 10.0 mi WSW 4.6 mph - N/A   Clear
9:56 PM -5.8 °F -16.7 °F -13.0 °F 71% 30.08 in 10.0 mi WSW 4.6 mph - N/A   Clear
10:16 PM -7.6 °F -16.5 °F -14.8 °F 71% 30.09 in 10.0 mi WSW 3.5 mph - N/A   Clear
10:56 PM -7.6 °F - -16.6 °F 65% 30.10 in 10.0 mi Calm Calm - N/A   Clear
11:16 PM -7.6 °F - -14.8 °F 71% 30.11 in 10.0 mi Calm Calm - N/A   Clear
11:36 PM -9.4 °F - -18.4 °F 65% 30.12 in 10.0 mi Calm Calm - N/A   Clear